Weather History for Flag Island, MN

Change the Weather History Date:

Thursday, July 11, 2013

  Actual Average Record
Temperature  
Mean Temperature 70 °F -  
Max Temperature 77 °F 70 °F 87 °F (2012)
Min Temperature 64 °F 58 °F 55 °F (2007)
Cooling Degree Days 6    
Growing Degree Days 20 (Base 50)    
Moisture  
Dew Point 62 °F    
Average Humidity 73    
Maximum Humidity 88    
Minimum Humidity 57    
Precipitation  
Precipitation 0.00 in - - ()
Sea Level Pressure  
Sea Level Pressure 29.93 in    
Wind  
Wind Speed 5 mph (South)    
Max Wind Speed 15 mph    
Max Gust Speed -    
Visibility 2 miles    
Events      
Averages and records for this station are not official NWS values.
T = Trace of Precipitation, MM = Missing Value Source: NWS Daily Summary

Daily Weather History Graph

Daily Weather History Graph

Search for Another Location

Airport:

Trip Planner

Search our weather history database for the weather conditions in past years. The results will help you decide how hot, cold, wet, or windy it might be!

Date:

Astronomy

Jul. 11, 2013 Rise Set
Actual Time 5:26 AM CDT 9:23 PM CDT
Civil Twilight 4:44 AM CDT 10:04 PM CDT
Nautical Twilight 3:46 AM CDT 11:02 PM CDT
Astronomical Twilight 2:07 AM CDT 12:38 AM CDT
Moon 9:08 AM CDT (7/11) 10:38 PM CDT (7/11)
Length of Visible Light 17h 20m
Length of Day
15h 57m
Waxing Crescent, 11% of the Moon is Illuminated
Jul 11
Waxing Crescent
Jul 15
First Quarter
Jul 22
Full
Jul 29
Last Quarter
Aug 6
New

Hourly Weather History & Observations

Time (CDT) Temp. Dew Point Humidity Pressure Visibility Wind Dir Wind Speed Gust Speed Precip Events Conditions
12:14 AM 68.0 °F 55.4 °F 64% 29.99 in 0.5 mi SW 4.6 mph - N/A   Haze
12:33 AM 66.2 °F 57.2 °F 73% 29.99 in 0.8 mi SW 4.6 mph - N/A   Haze
12:53 AM 66.2 °F 57.2 °F 73% 29.99 in 0.5 mi SW 4.6 mph - N/A   Haze
1:14 AM 66.2 °F 55.4 °F 68% 29.99 in 0.8 mi SW 4.6 mph - N/A   Haze
1:33 AM 66.2 °F 55.4 °F 68% 29.99 in 0.8 mi SW 3.5 mph - N/A   Haze
1:53 AM 66.2 °F 57.2 °F 73% 29.99 in 0.8 mi SW 4.6 mph - N/A   Haze
2:14 AM 64.4 °F 57.2 °F 77% 30.00 in 1.0 mi Calm Calm - N/A   Haze
2:33 AM 64.4 °F 57.2 °F 77% 30.00 in 0.8 mi SSW 3.5 mph - N/A   Haze
2:53 AM 64.4 °F 60.8 °F 88% 30.00 in 0.8 mi SW 4.6 mph - N/A   Haze
3:13 AM 64.4 °F 60.8 °F 88% 29.99 in 2.5 mi Calm Calm - N/A   Haze
3:33 AM 64.4 °F 60.8 °F 88% 29.99 in 2.5 mi Calm Calm - N/A   Scattered Clouds
3:54 AM 64.4 °F 60.8 °F 88% 29.99 in 1.5 mi Calm Calm - N/A   Mostly Cloudy
4:13 AM 64.4 °F 60.8 °F 88% 30.00 in 1.5 mi SSW 3.5 mph - N/A   Mostly Cloudy
4:33 AM 64.4 °F 60.8 °F 88% 30.00 in 1.5 mi Calm Calm - N/A   Mostly Cloudy
4:53 AM 64.4 °F 60.8 °F 88% 30.00 in 2.0 mi Calm Calm - N/A   Mostly Cloudy
5:13 AM 64.4 °F 60.8 °F 88% 30.00 in 2.0 mi Calm Calm - N/A   Mostly Cloudy
5:34 AM 66.2 °F 62.6 °F 88% 30.00 in 1.5 mi Calm Calm - N/A   Mist
5:53 AM 66.2 °F 60.8 °F 83% 30.00 in 0.8 mi Calm Calm - N/A   Haze
6:13 AM 66.2 °F 60.8 °F 83% 30.00 in 1.2 mi Calm Calm - N/A   Haze
6:34 AM 66.2 °F 62.6 °F 88% 30.00 in 1.5 mi South 3.5 mph - N/A   Mist
6:53 AM 66.2 °F 62.6 °F 88% 30.00 in 1.5 mi South 3.5 mph - N/A   Haze
7:13 AM 66.2 °F 60.8 °F 83% 30.01 in 1.8 mi South 4.6 mph - N/A   Haze
7:34 AM 66.2 °F 60.8 °F 83% 30.00 in 1.5 mi South 3.5 mph - N/A   Haze
7:53 AM 68.0 °F 60.8 °F 78% 30.00 in 1.5 mi South 3.5 mph - N/A   Haze
8:13 AM 69.8 °F 60.8 °F 73% 30.00 in 1.2 mi Calm Calm - N/A   Haze
8:34 AM 69.8 °F 60.8 °F 73% 30.00 in 1.2 mi South 3.5 mph - N/A   Haze
8:53 AM 69.8 °F 57.2 °F 64% 30.00 in 0.5 mi SSW 4.6 mph - N/A   Haze
9:13 AM 71.6 °F 60.8 °F 69% 29.99 in 1.5 mi Calm Calm - N/A   Haze
9:34 AM 73.4 °F 60.8 °F 65% 29.99 in 1.8 mi Calm Calm - N/A   Haze
9:53 AM 73.4 °F 62.6 °F 69% 29.98 in 2.0 mi South 4.6 mph - N/A   Haze
10:13 AM 73.4 °F 62.6 °F 69% 29.98 in 2.5 mi SSE 9.2 mph - N/A   Haze
10:33 AM 73.4 °F 62.6 °F 69% 29.98 in 2.0 mi South 8.1 mph - N/A   Haze
10:53 AM 75.2 °F 60.8 °F 61% 29.98 in 2.0 mi South 6.9 mph - N/A   Haze
11:14 AM 75.2 °F 60.8 °F 61% 29.97 in 1.8 mi South 6.9 mph - N/A   Haze
11:33 AM 75.2 °F 59.0 °F 57% 29.97 in 1.5 mi South 8.1 mph - N/A   Haze
11:53 AM 75.2 °F 60.8 °F 61% 29.97 in 1.2 mi South 6.9 mph - N/A   Haze
12:13 PM 75.2 °F 62.6 °F 65% 29.96 in 2.0 mi South 9.2 mph - N/A   Haze
12:34 PM 75.2 °F 62.6 °F 65% 29.96 in 2.0 mi South 9.2 mph - N/A   Haze
12:53 PM 75.2 °F 62.6 °F 65% 29.95 in 2.0 mi South 9.2 mph - N/A   Haze
1:13 PM 77.0 °F 62.6 °F 61% 29.95 in 1.8 mi South 8.1 mph - N/A   Haze
1:34 PM 77.0 °F 60.8 °F 57% 29.95 in 2.0 mi South 9.2 mph - N/A   Haze
1:53 PM 77.0 °F 62.6 °F 61% 29.94 in 2.0 mi South 9.2 mph - N/A   Haze
2:13 PM 75.2 °F 62.6 °F 65% 29.94 in 3.0 mi SSE 10.4 mph - N/A   Haze
2:34 PM 75.2 °F 62.6 °F 65% 29.93 in 3.0 mi SSE 9.2 mph - N/A   Haze
2:53 PM 75.2 °F 62.6 °F 65% 29.92 in 3.0 mi SSE 8.1 mph - N/A   Haze
3:13 PM 75.2 °F 60.8 °F 61% 29.92 in 4.0 mi SSE 9.2 mph - N/A   Haze
3:34 PM 75.2 °F 62.6 °F 65% 29.91 in 4.0 mi SSE 8.1 mph - N/A   Haze
3:53 PM 77.0 °F 62.6 °F 61% 29.90 in 4.0 mi SSE 9.2 mph - N/A   Haze
4:13 PM 77.0 °F 64.4 °F 65% 29.90 in 4.0 mi SSE 9.2 mph - N/A   Haze
4:34 PM 77.0 °F 62.6 °F 61% 29.90 in 3.0 mi SSE 8.1 mph - N/A   Haze
4:53 PM 77.0 °F 64.4 °F 65% 29.89 in 3.0 mi SSE 8.1 mph - N/A   Haze
5:14 PM 77.0 °F 64.4 °F 65% 29.88 in 3.0 mi SSE 8.1 mph - N/A   Haze
5:33 PM 77.0 °F 64.4 °F 65% 29.88 in 3.0 mi SSE 8.1 mph - N/A   Haze
5:53 PM 77.0 °F 64.4 °F 65% 29.86 in 4.0 mi SSE 9.2 mph - N/A   Haze
6:14 PM 77.0 °F 66.2 °F 69% 29.86 in 2.0 mi SSE 11.5 mph - N/A   Haze
6:33 PM 75.2 °F 66.2 °F 73% 29.85 in 3.0 mi SSE 11.5 mph - N/A   Haze
6:53 PM 75.2 °F 66.2 °F 73% 29.84 in 3.0 mi SSE 11.5 mph - N/A   Haze
7:14 PM 75.2 °F 66.2 °F 73% 29.84 in 5.0 mi SSE 11.5 mph - N/A   Haze
7:33 PM 75.2 °F 66.2 °F 73% 29.83 in 5.0 mi SSE 12.7 mph - N/A   Haze
7:53 PM 75.2 °F 66.2 °F 73% 29.84 in 4.0 mi SSE 6.9 mph - N/A   Haze
8:13 PM 75.2 °F 69.8 °F 83% 29.83 in 4.0 mi South 5.8 mph - N/A   Haze
8:33 PM 75.2 °F 68.0 °F 78% 29.82 in 4.0 mi South 5.8 mph - N/A   Haze
8:54 PM 75.2 °F 68.0 °F 78% 29.81 in 4.0 mi South 9.2 mph - N/A   Haze
9:13 PM 75.2 °F 66.2 °F 73% 29.82 in 4.0 mi South 10.4 mph - N/A   Haze
9:33 PM 75.2 °F 66.2 °F 73% 29.82 in 4.0 mi SSE 9.2 mph - N/A   Haze
9:54 PM 75.2 °F 66.2 °F 73% 29.83 in 5.0 mi South 9.2 mph - N/A   Haze
10:13 PM 75.2 °F 66.2 °F 73% 29.83 in 5.0 mi South 10.4 mph - N/A   Haze
10:33 PM 75.2 °F 66.2 °F 73% 29.82 in 4.0 mi South 12.7 mph - N/A   Haze
10:54 PM 75.2 °F 66.2 °F 73% 29.81 in - SSE 15.0 mph - N/A   Scattered Clouds
11:13 PM 73.4 °F 66.2 °F 78% 29.81 in 2.5 mi SSE 15.0 mph - N/A   Haze
11:33 PM 73.4 °F 66.2 °F 78% 29.82 in - SSE 13.8 mph - N/A   Mostly Cloudy
11:53 PM 73.4 °F 66.2 °F 78% 29.82 in - SSE 13.8 mph - N/A   Mostly Cloudy